Hourly Data Report for October 02, 2017

All times are specified in Local Standard Time (LST). Add 1 hour to adjust for Daylight Saving Time where and when it is observed.

KEJIMKUJIK 1
NOVA SCOTIA

44°24'11.020" N
65°12'11.070" W
125.00 m
8202592
71599
WKG

Download Data

Hourly Data (October 2017)
Hourly Data Report for October 2, 2017
Temp Definition
°C
Dew Point Temp Definition
°C
Rel Hum Definition
%
Wind Dir Definition
10's deg

Wind Spd Definition
km/h
Visibility Definition
km
Stn Press Definition
kPa
Hmdx Definition


Wind Chill Definition


Weather Definition


TIME
00:00 5.8 4.6 92 33 6   100.46     LegendNANA
01:00 5.5 4.5 93 32 4   100.45     LegendNANA
02:00 5.1 4.1 93 32 4   100.47     LegendNANA
03:00 4.6 3.7 94 34 2   100.46     LegendNANA
04:00 4.6 3.7 94 35 3   100.54     LegendNANA
05:00 4.3 3.4 94 34 2   100.62     LegendNANA
06:00 3.8 3.0 94 36 3   100.72     LegendNANA
07:00 4.4 3.6 95 36 3   100.80     LegendNANA
08:00 8.3 7.0 92 33 3   100.87     LegendNANA
09:00 12.3 8.1 75 1 8   100.91     LegendNANA
10:00 14.2 6.0 58 3 11   100.97     LegendNANA
11:00 15.3 4.9 50 3 8   100.99     LegendNANA
12:00 15.3 4.7 49 1 9   101.02     LegendNANA
13:00 15.2 4.7 49 2 11   101.06     LegendNANA
14:00 14.5 3.2 47 36 11   101.11     LegendNANA
15:00 13.6 2.6 47 3 14   101.17     LegendNANA
16:00 12.9 2.7 50 3 9   101.24     LegendNANA
17:00 10.5 2.9 59 4 8   101.36     LegendNANA
18:00 8.4 3.3 70 3 5   101.50     LegendNANA
19:00 5.9 3.0 82 2 2   101.60     LegendNANA
20:00 4.8 2.7 87 2 2   101.71     LegendNANA
21:00 4.1 2.4 89 6 5   101.76     LegendNANA
22:00 3.9 2.4 90 4 3   101.86     LegendNANA
23:00 2.6 1.2 90 1 3   101.87     LegendNANA

Notes on Data Quality.

Legend

  • E = Estimated
  • M = Missing
  • NA = Not Available
  • ‡ = Partner data that is not subject to review by the National Climate Archives
Date modified: